レモン彗星

C/2022 S4 ( Lemmon )

English version
Home page
Updated on August 10, 2025

---------------------------------------------------------------------

・ プロフィール

発見日 2022年9月19日
発見光度 20.6等
発見者 Mt. Lemmon

・ 写真集

・ 軌道要素

Epoch 2025 May 5.0 TT = JDT 2460800.5
T 2024 July 18.78120 TT                                 Pike
q   2.7618584            (2000.0)            P               Q
z  +0.0007218      Peri.  268.56195     +0.14462960     -0.76065309
 +/-0.0000009      Node   220.17806     +0.26859987     -0.58537102
e   0.9980065      Incl.  101.21643     -0.95233208     -0.28062011
From 755 observations 2022 Aug. 26-2025 June 3, mean residual 0".6.

・ 星図

・ 光度変化

        m1 = 9.5 + 5 logΔ + 9.5 log r(t + 250)

        ※ 灰色の曲線は、m1 = 9.0 + 5 logΔ + 8.5 log r の光度曲線です。

---------------------------------------------------------------------

軌道要素はM.P.E.C. 2025-M120に掲載されたものです。
星図はステラナビゲータ Ver.10 (アストロアーツ) で作成したものです。
光度グラフはComet for Windowsで作成したものです。

---------------------------------------------------------------------

Copyright(C) Seiichi Yoshida (comet@aerith.net). All rights reserved.